Vertical_Velocity
3 3 2 0 0 0 -1 -1 -2 0 3 1 0 -0 -1 -1 -1 -0 -1 -0 1 1 1 1 -0 -0 -0 -0 -1 2 3 1 -7 -3 -0 4 -2 0 -4 2 7 6 3
1 3 2 2 1 0 2 -0 -1 -0 -2 -0 1 -0 -1 -1 -1 0 0 1 1 0 0 0 2 4 2 -0 -2 -3 2 0 -6 -7 -6 -1 22 3 5 3 3 4 -1
1 2 2 2 0 1 -3 1 1 4 3 2 1 2 3 3 2 2 1 2 2 1 -0 -1 -2 -4 -2 -0 -1 -2 -5 3 6 -4 -19 -7 -1 -9 11 7 2 5 3
2 1 2 1 -0 1 1 1 1 3 2 3 2 2 2 2 0 0 0 -1 -3 -3 -3 -2 -1 -1 -1 -0 1 1 1 -3 5 11 2 -10 -24 -15 -7 14 8 4 9
1 1 2 0 1 3 3 2 1 2 3 3 1 0 -0 -0 -1 -1 -2 -2 -0 1 1 1 1 0 -1 -2 -2 -2 -6 -6 -6 -5 0 8 7 0 -26 -29 5 -1 -0
0 -0 -1 0 0 -0 1 2 3 2 1 2 2 1 1 1 0 -1 -1 -1 -1 -2 -2 -2 -1 -2 -1 -2 -0 -4 -2 0 -1 -4 -3 -7 -5 7 3 -11 -0 -26 21
3 2 1 1 1 2 2 2 3 3 3 1 -0 -0 -0 -1 -0 0 0 0 0 -1 -1 -0 -1 -1 -1 -1 -1 -0 -2 1 -1 -0 1 -1 -2 -7 -6 -11 -14 -26 12
-1 -1 1 3 3 1 -0 1 3 2 1 1 1 1 -0 1 1 1 2 3 1 0 0 1 0 -0 -3 -2 -2 -1 -2 3 2 3 1 -1 0 -1 -3 -7 -15 -20 -15
-0 1 1 3 1 -1 0 1 2 2 0 -0 0 0 2 2 1 0 -1 -1 1 2 1 -1 -0 -1 -2 -2 -0 2 2 2 -1 1 2 0 1 1 1 -1 -2 -12 -31
1 2 1 -1 -1 -0 1 1 1 -0 -1 1 2 1 -0 -1 -0 -0 0 -1 -1 -2 -2 -2 -1 -1 -3 -2 -0 1 -2 -1 2 -2 -1 2 -1 -1 -0 -0 1 3 -1
1 -0 -0 -2 -0 1 2 0 0 1 2 1 1 -0 0 1 -0 -1 -0 1 -1 -2 -3 -3 -2 -1 0 -2 -1 -3 -2 -2 -2 -1 -0 1 -0 0 -1 1 2 1 2
0 -1 -0 0 1 1 -0 -0 2 2 1 0 -1 0 1 0 -1 -1 -1 -1 -2 -5 -3 -2 -1 -0 -1 -4 -3 -2 -3 -3 1 0 1 1 -0 2 -1 -2 2 0 4
-0 1 1 -0 -0 1 1 0 1 1 0 0 1 -0 -2 -1 -1 -1 -3 -5 -3 -3 -3 -2 -3 -3 -2 -2 -2 -5 -4 -3 -4 -4 -6 -5 -3 1 -2 -2 -0 2 2
1 1 1 1 0 -0 1 0 -1 -1 -1 -1 -3 -3 -3 -2 -2 -4 -3 -3 -2 0 -0 -4 -3 -3 -2 -5 -4 -5 -4 -3 -4 -2 -3 -1 -1 -2 -3 -2 3 3 1
1 2 1 0 -0 -0 -1 0 -0 -1 -2 -3 -2 -1 -3 -2 -1 -1 -2 -2 -2 -3 -4 -1 -0 -3 -3 -7 -6 -6 -6 -0 0 1 -0 -0 -0 -3 -4 -10 -4 -1 -0
2 2 0 1 -0 -0 -0 -1 -1 -2 -3 -1 -2 -1 -0 -3 -4 -2 -0 -1 -1 0 -1 -4 -4 -0 -2 -5 -7 -7 -4 -2 -4 -5 1 -1 -3 -1 -1 -0 -1 0 -3
-0 -0 -1 0 -1 -0 0 -1 -2 -0 0 -3 -2 -3 -2 -1 -0 -2 -2 -0 0 -1 -2 -1 -2 -2 -2 -5 -3 -1 -6 -2 -2 -2 -4 -2 -0 -1 -2 -0 2 4 2
-2 0 0 0 -0 -2 -2 0 -0 -1 -2 -3 -2 -0 0 -0 -2 -1 -2 -2 -1 -1 -2 -1 -2 -1 -3 -3 -6 -7 -0 1 -2 -3 -4 -7 -4 1 -6 -9 -1 5 5
1 0 0 -0 -0 -1 -1 -2 -3 -1 -1 -1 -1 0 0 -0 -1 -1 -1 -1 -1 -2 -5 -4 -0 0 -2 -5 -4 -5 -5 -6 -4 -1 -1 -5 -6 -6 2 -3 -1 3 3
1 -0 -1 -1 0 1 1 1 1 0 -1 0 0 -1 -0 -1 1 -2 -4 -3 -7 -2 -4 0 0 -3 -5 -3 -1 -5 -5 -1 -2 1 2 7 -6 -4 -2 -8 -5 -0 -0
1 2 2 2 1 0 -1 1 -1 0 1 -0 -0 -1 -3 -2 -4 -2 -6 -1 -2 2 1 -1 -4 -6 -8 0 -2 -1 -2 -6 -1 -2 2 2 -3 -5 -2 -4 -4 -4 -2
3 2 -1 -2 -2 -1 -2 1 3 0 -1 -1 -2 -2 -3 -4 -3 -3 -3 -1 -3 -1 -2 -7 -2 -1 -1 -2 0 1 -2 -5 -8 -3 1 -3 0 -1 -1 -2 -2 1 1
0 -3 -2 -1 -0 0 1 1 -1 -0 0 -2 -2 -2 -2 -5 -5 -3 -0 -1 -3 -4 -4 -8 -4 1 4 1 1 -0 -2 2 1 2 -1 -4 0 1 1 -2 -2 3 2
-1 -1 -2 0 0 -0 -1 -1 -0 -2 -1 -0 -1 -5 -2 1 1 0 -3 -2 -5 -3 -4 -5 -3 -1 5 -1 -1 0 -1 3 3 6 5 -0 -0 -5 -5 -2 -2 0 -1
-0 1 1 -0 -1 -2 -1 1 -1 -1 -1 -3 -2 1 -0 -2 1 1 -3 -1 1 -6 -7 -7 -7 -11 0 2 -3 -7 -5 -5 -3 0 2 2 1 3 2 -2 -1 -1 -1
1 -1 -2 -3 -3 -3 -3 -2 -3 -1 1 2 -2 -1 1 1 -3 -3 3 2 -0 -0 -0 -4 -10 -2 -8 -4 -2 -2 0 -4 -3 4 1 1 0 0 1 1 -1 -2 -0
Height
5803 5803 5803 5803 5803 5802 5802 5802 5801 5800 5800 5798 5797 5796 5794 5791 5788 5784 5781 5778 5775 5772 5769 5767 5764 5760 5756 5753 5749 5745 5742 5737 5731 5727 5724 5722 5717 5713 5707 5703 5700 5696 5690
5796 5797 5798 5797 5796 5796 5796 5796 5795 5795 5794 5793 5792 5790 5787 5784 5781 5778 5775 5772 5768 5765 5762 5759 5755 5752 5747 5742 5738 5733 5729 5724 5717 5711 5706 5704 5705 5700 5695 5689 5684 5679 5674
5791 5792 5792 5792 5790 5789 5790 5790 5791 5790 5788 5786 5784 5782 5780 5777 5774 5771 5768 5765 5761 5757 5754 5750 5746 5742 5737 5732 5727 5722 5716 5711 5706 5698 5689 5685 5683 5678 5678 5674 5669 5664 5659
5786 5786 5786 5785 5784 5783 5783 5785 5785 5784 5783 5780 5777 5774 5772 5769 5766 5764 5760 5757 5753 5749 5744 5740 5735 5731 5726 5721 5716 5710 5704 5697 5690 5684 5676 5668 5659 5653 5656 5652 5646 5639 5634
5780 5780 5780 5780 5778 5777 5776 5777 5778 5778 5776 5773 5769 5767 5764 5762 5758 5755 5752 5749 5745 5740 5735 5731 5726 5721 5715 5709 5703 5695 5687 5679 5672 5664 5656 5649 5640 5630 5623 5629 5624 5619 5611
5775 5775 5775 5774 5772 5771 5771 5771 5771 5770 5768 5765 5763 5760 5757 5754 5751 5747 5743 5739 5734 5729 5725 5720 5714 5708 5701 5694 5686 5678 5670 5662 5653 5644 5635 5625 5616 5607 5598 5591 5595 5591 5590
5768 5769 5769 5767 5766 5765 5765 5764 5762 5761 5759 5757 5755 5752 5749 5746 5742 5738 5734 5730 5725 5719 5713 5708 5701 5694 5687 5679 5671 5662 5653 5644 5634 5625 5616 5605 5594 5582 5571 5559 5556 5554 5560
5761 5761 5761 5760 5758 5757 5757 5756 5754 5753 5751 5749 5746 5743 5740 5736 5733 5729 5724 5719 5714 5708 5701 5695 5687 5679 5671 5662 5654 5644 5635 5625 5615 5604 5593 5582 5568 5555 5542 5529 5514 5513 5519
5754 5754 5754 5753 5751 5749 5748 5748 5746 5745 5743 5740 5737 5734 5730 5726 5722 5717 5712 5707 5700 5694 5686 5678 5670 5660 5651 5642 5633 5623 5613 5603 5591 5580 5568 5554 5541 5527 5513 5500 5486 5467 5464
5748 5748 5748 5745 5743 5742 5741 5740 5739 5736 5734 5731 5728 5723 5719 5716 5711 5706 5700 5693 5685 5677 5669 5660 5651 5641 5631 5622 5612 5602 5590 5580 5567 5555 5543 5528 5513 5500 5487 5474 5462 5449 5430
5741 5741 5740 5738 5737 5736 5734 5732 5730 5728 5726 5722 5718 5714 5710 5705 5699 5693 5686 5678 5670 5662 5652 5642 5632 5622 5611 5601 5591 5580 5568 5557 5545 5531 5517 5503 5487 5474 5462 5451 5440 5430 5416
5734 5734 5733 5732 5730 5729 5727 5725 5721 5718 5716 5712 5708 5704 5699 5693 5686 5679 5671 5663 5653 5644 5634 5624 5613 5602 5590 5579 5569 5559 5547 5534 5520 5506 5491 5475 5461 5450 5438 5428 5418 5406 5397
5728 5728 5727 5725 5724 5722 5720 5717 5713 5710 5707 5703 5698 5692 5686 5680 5672 5664 5655 5647 5637 5626 5615 5604 5593 5582 5570 5559 5547 5535 5522 5507 5491 5475 5461 5448 5434 5424 5411 5400 5389 5379 5370
5722 5721 5720 5719 5717 5714 5711 5708 5705 5701 5697 5692 5686 5680 5674 5666 5657 5649 5640 5630 5620 5609 5597 5585 5573 5560 5548 5535 5523 5510 5496 5482 5466 5451 5436 5422 5407 5393 5381 5370 5360 5348 5338
5715 5714 5713 5711 5709 5706 5703 5699 5695 5690 5685 5680 5674 5666 5659 5651 5642 5633 5623 5613 5602 5590 5578 5566 5553 5538 5524 5510 5497 5485 5470 5456 5444 5430 5413 5397 5381 5366 5352 5340 5334 5321 5312
5707 5706 5704 5702 5699 5696 5693 5689 5684 5679 5673 5667 5660 5652 5643 5635 5626 5617 5607 5595 5583 5572 5560 5546 5532 5517 5502 5487 5473 5459 5448 5436 5420 5405 5391 5375 5359 5345 5335 5324 5312 5303 5287
5700 5698 5696 5694 5691 5687 5683 5678 5673 5667 5661 5654 5646 5637 5628 5620 5610 5599 5588 5578 5567 5555 5541 5527 5512 5496 5480 5467 5454 5441 5428 5414 5397 5378 5364 5355 5340 5327 5319 5311 5301 5290 5277
5692 5690 5688 5685 5682 5678 5673 5667 5661 5655 5647 5639 5631 5622 5613 5603 5592 5582 5572 5560 5549 5536 5522 5506 5489 5477 5461 5447 5434 5421 5408 5393 5375 5358 5344 5333 5324 5311 5299 5291 5284 5276 5265
5684 5682 5679 5676 5671 5667 5662 5656 5649 5640 5632 5623 5614 5606 5597 5587 5577 5566 5555 5543 5532 5516 5501 5484 5469 5456 5444 5428 5414 5400 5387 5373 5357 5343 5328 5315 5306 5295 5284 5274 5267 5262 5253
5675 5672 5669 5665 5661 5656 5649 5642 5633 5625 5616 5607 5599 5590 5581 5570 5560 5549 5537 5524 5509 5495 5481 5467 5450 5435 5425 5412 5396 5380 5364 5354 5343 5331 5318 5304 5291 5282 5272 5261 5253 5248 5241
5665 5662 5659 5654 5649 5642 5635 5627 5619 5610 5602 5593 5584 5575 5564 5554 5543 5530 5515 5502 5488 5475 5463 5451 5436 5422 5407 5395 5380 5364 5348 5335 5327 5317 5307 5293 5281 5272 5263 5252 5242 5235 5228
5655 5652 5647 5641 5634 5627 5620 5612 5605 5596 5587 5579 5569 5558 5547 5535 5523 5510 5496 5481 5468 5456 5444 5435 5425 5410 5395 5379 5364 5348 5334 5320 5309 5302 5292 5282 5273 5263 5254 5244 5235 5227 5219
5644 5639 5633 5627 5620 5613 5606 5598 5591 5583 5573 5564 5553 5542 5530 5517 5503 5490 5477 5465 5449 5437 5427 5417 5408 5397 5381 5365 5348 5332 5321 5310 5299 5289 5280 5271 5263 5254 5246 5236 5227 5220 5213
5631 5625 5619 5612 5605 5598 5592 5585 5577 5568 5559 5549 5538 5526 5512 5499 5486 5473 5457 5444 5432 5422 5410 5400 5390 5379 5365 5348 5332 5320 5310 5299 5288 5280 5271 5262 5254 5244 5237 5230 5222 5216 5213
5617 5611 5604 5598 5591 5585 5579 5571 5562 5553 5544 5532 5520 5508 5495 5482 5470 5456 5441 5429 5417 5404 5394 5382 5370 5359 5347 5332 5317 5304 5297 5286 5276 5268 5260 5253 5246 5240 5233 5226 5221 5217 5213
5603 5597 5591 5585 5578 5571 5564 5556 5547 5537 5527 5516 5504 5492 5479 5465 5451 5439 5430 5416 5405 5394 5380 5367 5355 5344 5329 5315 5303 5295 5286 5276 5267 5260 5252 5245 5239 5234 5229 5226 5222 5217 5212